Alabaster, AL

12:13 AM CDT on April 29, 2017 (GMT -0500)
Shelby County

Weather History for KEET - June, 2013

Change the Weather History Date:

Monday, June 17, 2013

  Actual Average Record
Temperature  
Mean Temperature 81 °F 78 °F  
Max Temperature 90 °F 88 °F 98 °F (1964)
Min Temperature 71 °F 68 °F 52 °F (1969)
Cooling Degree Days 16 13  
Month to date cooling degree days 228 194  
Year to date cooling degree days 480 463  
Since 1 June cooling degree days 228 194  
Growing Degree Days 30 (Base 50)    
Moisture  
Dew Point 71 °F    
Average Humidity 75    
Maximum Humidity 94    
Minimum Humidity 55    
Precipitation  
Precipitation T in 0.14 in 1.09 in (1958)
Month to date precipitation 1.88 2.74  
Year to date precipitation 30.88 26.67  
Sea Level Pressure  
Sea Level Pressure 29.99 in    
Wind  
Wind Speed 4 mph (South)    
Max Wind Speed 15 mph    
Max Gust Speed 25 mph    
Visibility 7 miles    
Events Rain    
T = Trace of Precipitation, MM = Missing Value Source: NWS Daily Summary

Daily Weather History Graph

Daily Weather History Graph

Search for Another Location

Airport or City:

Trip Planner

Search our weather history database for the weather conditions in past years. The results will help you decide how hot, cold, wet, or windy it might be!

Date:

Astronomy

Jun. 17, 2013 Rise Set
Actual Time 5:37 AM CDT 7:58 PM CDT
Civil Twilight 5:09 AM CDT 8:27 PM CDT
Nautical Twilight 4:33 AM CDT 9:02 PM CDT
Astronomical Twilight 3:55 AM CDT 9:41 PM CDT
Moon 1:51 PM CDT (6/17) 12:56 AM CDT (6/17)
Length of Visible Light 15h 18m
Length of Day
14h 20m
First Quarter, 60% of the Moon is Illuminated
Jun 17
First Quarter
Jun 23
Full
Jun 29
Last Quarter
Jul 8
New
Jul 15
First Quarter

Hourly Weather History & Observations

Time (CDT) Temp. Heat Index Dew Point Humidity Pressure Visibility Wind Dir Wind Speed Gust Speed Precip Events Conditions
12:53 AM 73.9 °F - 72.0 °F 93% 30.01 in 8.0 mi Calm Calm - N/A   Clear
1:53 AM 73.9 °F - 72.0 °F 93% 29.99 in 7.0 mi Calm Calm - N/A   Clear
2:53 AM 73.9 °F - 71.1 °F 91% 30.00 in 7.0 mi Calm Calm - N/A   Clear
3:53 AM 73.9 °F - 71.1 °F 91% 30.00 in 7.0 mi Calm Calm - N/A   Scattered Clouds
4:22 AM 73.4 °F - 71.6 °F 94% 30.02 in 7.0 mi Calm Calm - N/A   Mostly Cloudy
4:30 AM 73.4 °F - 71.6 °F 94% 30.01 in 7.0 mi Calm Calm - N/A   Mostly Cloudy
4:53 AM 73.9 °F - 71.1 °F 91% 29.99 in 7.0 mi Calm Calm - N/A   Overcast
5:53 AM 75.0 °F - 72.0 °F 90% 30.00 in 6.0 mi Calm Calm - N/A   Overcast
6:12 AM 75.2 °F - 73.4 °F 94% 30.02 in 5.0 mi South 3.5 mph - N/A   Overcast
6:40 AM 75.2 °F - 73.4 °F 94% 30.02 in 4.0 mi South 3.5 mph - N/A   Overcast
6:53 AM 75.0 °F - 73.0 °F 94% 30.00 in 3.0 mi Calm Calm - N/A   Overcast
7:53 AM 77.0 °F - 73.9 °F 90% 29.99 in 4.0 mi Calm Calm - N/A   Overcast
8:20 AM 78.8 °F - 73.4 °F 83% 30.01 in 4.0 mi South 3.5 mph - N/A   Overcast
8:53 AM 79.0 °F - 73.9 °F 84% 30.00 in 4.0 mi SSE 3.5 mph - N/A   Haze
9:11 AM 80.6 °F 85.4 °F 73.4 °F 79% 30.02 in 4.0 mi SSE 4.6 mph - N/A   Haze
9:53 AM 82.0 °F 87.9 °F 73.9 °F 76% 30.00 in 6.0 mi South 4.6 mph - N/A   Haze
10:13 AM 84.2 °F 90.9 °F 73.4 °F 70% 30.02 in 6.0 mi Calm Calm - N/A   Haze
10:44 AM 84.2 °F 90.9 °F 73.4 °F 70% 30.03 in 6.0 mi Calm Calm - N/A   Haze
10:53 AM 84.9 °F 92.1 °F 73.9 °F 69% 30.00 in 6.0 mi Calm Calm - N/A   Haze
11:53 AM 87.1 °F 93.6 °F 72.0 °F 61% 29.98 in 8.0 mi SSW 8.1 mph - N/A   Partly Cloudy
12:53 PM 89.1 °F 95.0 °F 71.1 °F 55% 29.96 in 7.0 mi Variable 4.6 mph - N/A   Partly Cloudy
1:53 PM 87.1 °F 92.0 °F 70.0 °F 57% 29.95 in 9.0 mi Variable 3.5 mph - N/A   Mostly Cloudy
2:53 PM 86.0 °F 93.0 °F 73.0 °F 65% 29.94 in 9.0 mi West 4.6 mph - N/A   Partly Cloudy
3:53 PM 80.1 °F 82.7 °F 68.0 °F 67% 29.96 in 10.0 mi SW 9.2 mph 21.9 mph N/A   Mostly Cloudy
4:53 PM 75.0 °F - 64.9 °F 71% 29.98 in 10.0 mi SW 6.9 mph 17.3 mph N/A   Scattered Clouds
5:53 PM 75.0 °F - 66.0 °F 73% 29.96 in 10.0 mi WNW 4.6 mph - N/A   Clear
6:53 PM 73.9 °F - 66.9 °F 79% 29.95 in 10.0 mi Calm Calm - 0.00 in Rain Light Rain
7:53 PM 73.9 °F - 66.0 °F 76% 29.96 in 10.0 mi South 5.8 mph - 0.00 in   Clear
8:53 PM 73.0 °F - 66.9 °F 81% 29.95 in 10.0 mi South 6.9 mph - N/A   Clear
9:53 PM 73.0 °F - 66.0 °F 79% 29.95 in 10.0 mi South 4.6 mph - N/A   Clear
10:53 PM 72.0 °F - 66.0 °F 81% 29.96 in 10.0 mi SE 4.6 mph - N/A   Partly Cloudy
11:53 PM 72.0 °F - 66.0 °F 81% 29.94 in 10.0 mi SSE 5.8 mph - N/A   Partly Cloudy